Location: Asheville, NC
(35.6000°N, 82.5500°W)
Time: 15:28:00
(UTC-04:00)

NUDT-PHONESAT - Pass Details

Date: 17 March 2018
Orbit: 492 x 511 km, 97.4° (Epoch: 25 June)

Event Time Altitude Azimuth Distance (km) Brightness Sun altitude
Rises 19:58:23 0° 202° (SSW) 2,554 ? -4.7°
Reaches altitude 10° 20:00:59 10° 222° (SW) 1,680 ? -5.2°
Maximum altitude 20:03:26 17° 265° (W) 1,296 ? -5.7°
Drops below altitude 10° 20:05:55 10° 308° (NW) 1,694 ? -6.2°
Sets 20:08:34 0° 329° (NNW) 2,586 ? -6.7°
